Location: Unspecified
(52.0000°N, 4.4000°E)
Time: 21:27:14
(UTC+00:00)

GP-B - Pass Details

Date: 14 May 2025
Orbit: 619 x 623 km, 89.8° (Epoch: 15 June)

Event Time Altitude Azimuth Distance (km) Brightness Sun altitude
Rises 23:15:28 0° 6° (N) 2,919 8.0 -18.9°
Reaches altitude 10° 23:17:50 10° 15° (NNE) 2,006 6.7 -19.0°
Maximum altitude 23:21:57 38° 84° (E) 957 4.0 -19.0°
Enters shadow 23:23:24 29° 125° (SE) 1,139 4.1 -19.0°
